[[{"header":{"parameterUnit":"m.s-1","parameterCategory":2,"la1":30.2991,"la2":30.254,"lo1":-89.0895,"lo2":-89.0444,"dy":0.0017,"dx":0.0017,"nx":28,"ny":28,"refTime":"2024-09-29T21:00:00:Z","depth":"0","parameterNumber":2,"parameterNumberName":"U-component_of_CURRENTS"},"data":[0,0,0,0,0,0,0,0,0,0,0,0,0,0,0,0,0,0,0,0,0,0,0,0,0,0,0,0,0,0,0,0,0,0,0,0,0,0,0,0,0,0,0,0,0,0,0,0,0,0,0,0,0,0,0,0,0,0,0.1593,0.1594,0,0.1724,0.1726,0.1728,0.1807,0.1807,0.1808,0.1808,0.1866,0.1867,0.1869,0,0,0,0,0,0,0,0,0,0,0,0,0,0.1565,0.1564,0.1592,0.1594,0.1595,0.1724,0.1726,0.1728,0.1807,0.1807,0.1808,0.1808,0.1866,0.1867,0.1869,0,0,0,0,0,0,0,0,0,0,0,0,0,0.1626,0.1564,0.1592,0.1649,0.1655,0.1724,0.1726,0.1729,0.1807,0.1807,0.1808,0.1808,0.1865,0.1867,0.1869,0.1876,0,0,0.1875,0.1876,0,0,0,0,0,0,0,0,0.1622,0.1627,0.1639,0.1645,0.1652,0.1748,0.1738,0.1773,0.1807,0.1752,0.1808,0.1808,0.1818,0.1824,0.1852,0.1878,0.1881,0.1876,0.1877,0.1878,0.1878,0,0,0,0,0,0,0,0.1618,0.1623,0.1647,0.1641,0.1649,0.1721,0.1729,0.1746,0.1782,0.1756,0.1762,0.1773,0.1822,0.185,0.1854,0.1882,0.1875,0.1877,0.1879,0.1879,0.1934,0.1934,0,0,0,0,0,0,0.1589,0.1618,0.1642,0.165,0.1636,0.172,0.1729,0.1719,0.1783,0.1794,0.1773,0.1777,0.1846,0.1851,0.1856,0.1919,0.1878,0.188,0.1881,0.1934,0.1934,0.1934,0,0,0,0,0,0,0.1587,0.1589,0.1637,0.1637,0.1648,0.1719,0.1707,0.1721,0.1755,0.1796,0.1806,0.1793,0.1847,0.1853,0.1886,0.1919,0.188,0.1882,0.1933,0.1934,0.1934,0.201,0,0,0,0,0,0,0.1585,0.1587,0.1578,0.1634,0.1647,0.1695,0.1707,0.1723,0.176,0.1766,0.1816,0.1822,0.1848,0.1882,0.1888,0.1921,0.1884,0.1933,0.1934,0.1934,0.2007,0.2013,0.2018,0,0,0,0,0,0.1584,0.1583,0.1576,0.158,0.1628,0.1696,0.1711,0.1764,0.176,0.1791,0.1816,0.1821,0.1888,0.1885,0.1891,0.1926,0.1933,0.1933,0.1934,0.2005,0.2012,0.2017,0,0,0,0,0,0,0.1588,0.1592,0.1587,0.159,0.164,0.1709,0.1743,0.1761,0.1806,0.1807,0.1831,0.184,0.1884,0.1879,0.1874,0.1936,0.1908,0.191,0.196,0.1966,0.1971,0.1981,0.1886,0,0,0,0,0,0.1573,0.1562,0.1596,0.1605,0.1624,0.1674,0.1706,0.174,0.1783,0.1805,0.1836,0.1858,0.1889,0.1906,0.1934,0.1965,0.1971,0.1984,0.199,0.1995,0.2003,0.2041,0.2052,0.1936,0.1936,0.1936,0,0,0.1582,0.1579,0.1579,0.1603,0.1642,0.1702,0.1697,0.1751,0.1804,0.1799,0.1872,0.1882,0.19,0.1952,0.1969,0.1954,0.203,0.1995,0.2,0.2005,0.2043,0.2055,0.2065,0.1936,0.1936,0.1936,0,0,0.1615,0.1587,0.1602,0.1641,0.1688,0.1722,0.1732,0.1796,0.1826,0.1883,0.1894,0.1921,0.1967,0.2,0.2015,0.2055,0.2058,0.2051,0.2092,0.213,0.214,0.215,0.2177,0.2188,0.2052,0.2052,0.2052,0,0.1629,0.1641,0.1628,0.1673,0.1709,0.1729,0.1786,0.183,0.19,0.1912,0.1914,0.1979,0.1998,0.2054,0.2079,0.2074,0.2085,0.2075,0.214,0.215,0.2158,0.2183,0.2195,0.2056,0.2056,0.2055,0.2055,0,0.1689,0.1708,0.173,0.1773,0.1811,0.1866,0.191,0.1946,0.1962,0.1996,0.2042,0.2072,0.2103,0.2115,0.2119,0.2181,0.2167,0.2148,0.2133,0.2175,0.2198,0.2209,0.2061,0.206,0.2059,0.2058,0,0,0.1704,0.1756,0.1768,0.1797,0.1862,0.1901,0.1966,0.2022,0.2048,0.2103,0.2144,0.2201,0.2189,0.2204,0.2204,0.2241,0.232,0.2224,0.2224,0.2266,0.24,0.2235,0.223,0.2316,0.2318,0.232,0.2394,0,0.1762,0.184,0.185,0.1943,0.1991,0.201,0.2062,0.2107,0.2133,0.218,0.2198,0.224,0.2231,0.2241,0.2282,0.2313,0.235,0.2301,0.2339,0.234,0.2201,0.2238,0.2114,0.2156,0.2405,0.2407,0.2408,0,0.1825,0.1862,0.1945,0.1998,0.2017,0.2068,0.2112,0.2164,0.2214,0.2228,0.2263,0.2277,0.2346,0.2321,0.241,0.2379,0.2398,0.2416,0.2419,0.2245,0.2194,0.2151,0.2166,0.21,0.2424,0.2423,0.2422,0,0.184,0.1927,0.1979,0.2011,0.2081,0.2099,0.2129,0.2172,0.2195,0.2255,0.2269,0.2342,0.2366,0.2427,0.2456,0.2447,0.2538,0.2528,0.2398,0.2387,0.2276,0.2249,0.2242,0.2588,0.2587,0.2587,0.2587,0,0.1893,0.194,0.1986,0.2025,0.207,0.2106,0.2144,0.2175,0.2214,0.2238,0.2286,0.2306,0.2393,0.2441,0.2483,0.2461,0.256,0.2411,0.2395,0.2294,0.2269,0.2198,0.2169,0.259,0.2589,0.2589,0.2588,0,0.1912,0.1948,0.201,0.207,0.2081,0.2111,0.2145,0.2169,0.2198,0.2232,0.2251,0.2302,0.2337,0.2399,0.2484,0.2455,0.2387,0.2444,0.2305,0.2267,0.2032,0.201,0.1889,0.1854,0.2319,0.2315,0.2312,0,0.1931,0.1968,0.2029,0.2048,0.2072,0.2109,0.2127,0.2162,0.2181,0.2213,0.2229,0.2256,0.2233,0.2271,0.226,0.2278,0.2248,0.215,0.2092,0.1996,0.1965,0.1899,0.1877,0.2003,0.1997,0.1993,0.1989,0,0.1968,0.1984,0.2027,0.2049,0.2073,0.2095,0.2121,0.2125,0.2155,0.2154,0.2124,0.2097,0.2079,0.1991,0.1979,0.1991,0.2,0.2051,0.2017,0.1753,0.1622,0.1586,0.1981,0.195,0.1954,0.1957,0.1959,0.1961,0.1981,0.2008,0.2036,0.2038,0.2054,0.2038,0.2009,0.2022,0.1997,0.1919,0.199,0.1851,0.1783,0.1709,0.1723,0.1617,0.1673,0.1564,0.1565,0.1522,0.1407,0.1678,0.1568,0.1569,0.1571,0.1572,0.1573,0,0.1969,0.1985,0.2011,0.1986,0.1936,0.1967,0.1959,0.1882,0.1782,0.1738,0.1659,0.1485,0.1372,0.1339,0.1244,0.1167,0.1178,0.1145,0.1087,0.1111,0.1418,0.1321,0.1072,0.1072,0.1072,0.1072,0.1072,0.1072,0.1967,0.1963,0.1955,0.1843,0.1809,0.1708,0.1667,0.1569,0.1499,0.128,0.1126,0.1087,0.1043,0.0929,0.0845,0.0851,0.0832,0.0721,0.0797,0.1063,0.1105,0.1145,0.1049,0.0746,0.0746,0.0454,0.0452,0.045]},{"header":{"parameterUnit":"m.s-1","parameterCategory":2,"la1":30.2991,"la2":30.254,"lo1":-89.0895,"lo2":-89.0444,"dy":0.0017,"dx":0.0017,"nx":28,"ny":28,"refTime":"2024-09-29T21:00:00:Z","depth":"0","parameterNumber":3,"parameterNumberName":"V-component_of_CURRENTS"},"data":[0,0,0,0,0,0,0,0,0,0,0,0,0,0,0,0,0,0,0,0,0,0,0,0,0,0,0,0,0,0,0,0,0,0,0,0,0,0,0,0,0,0,0,0,0,0,0,0,0,0,0,0,0,0,0,0,0,0,0.0264,0.0264,0,0.0231,0.0231,0.023,0.0208,0.0208,0.0208,0.0208,0.0149,0.0147,0.0146,0,0,0,0,0,0,0,0,0,0,0,0,0,0.0255,0.0255,0.0264,0.0264,0.0263,0.0231,0.0231,0.023,0.0208,0.0208,0.0208,0.0208,0.0149,0.0147,0.0146,0,0,0,0,0,0,0,0,0,0,0,0,0,0.0243,0.0255,0.0264,0.025,0.0248,0.0232,0.0231,0.023,0.0208,0.0208,0.0208,0.0208,0.015,0.0148,0.0145,0.0131,0,0,0.0138,0.0137,0,0,0,0,0,0,0,0,0.0244,0.0243,0.0252,0.0251,0.0249,0.0225,0.0206,0.0196,0.0208,0.0222,0.0208,0.0208,0.0173,0.0169,0.0161,0.0128,0.0126,0.0138,0.0136,0.0135,0.0135,0,0,0,0,0,0,0,0.0244,0.0244,0.0249,0.0252,0.025,0.0227,0.0226,0.0204,0.0196,0.0221,0.0219,0.0218,0.0172,0.0163,0.0159,0.0125,0.0138,0.0136,0.0134,0.0133,0.0165,0.0168,0,0,0,0,0,0,0.0254,0.0245,0.0251,0.0249,0.0248,0.0228,0.0226,0.0232,0.0197,0.0192,0.0218,0.0217,0.0167,0.0162,0.0157,0.0187,0.0135,0.0133,0.0132,0.0163,0.0166,0.0168,0,0,0,0,0,0,0.0255,0.0256,0.0252,0.0247,0.0245,0.0228,0.0235,0.0231,0.0224,0.0196,0.019,0.0215,0.0167,0.016,0.0152,0.0183,0.0132,0.013,0.0161,0.0164,0.0167,0.0216,0,0,0,0,0,0,0.0255,0.0256,0.026,0.0248,0.0246,0.0239,0.0235,0.0231,0.0224,0.0222,0.0191,0.0186,0.0166,0.0156,0.0149,0.0179,0.0128,0.0158,0.0162,0.0166,0.0211,0.0221,0.0228,0,0,0,0,0,0.0254,0.0265,0.026,0.0261,0.0253,0.0239,0.0235,0.0222,0.0224,0.0216,0.0211,0.0187,0.018,0.0154,0.0147,0.0176,0.0156,0.0161,0.0166,0.0208,0.0219,0.0228,0,0,0,0,0,0,0.0264,0.0263,0.0258,0.0268,0.0252,0.0236,0.0232,0.0225,0.0213,0.0216,0.0194,0.0188,0.0201,0.0184,0.0157,0.0205,0.0172,0.0176,0.0207,0.0217,0.0225,0.0247,0.0126,0,0,0,0,0,0.0268,0.0275,0.0263,0.0268,0.0264,0.0249,0.0242,0.0232,0.0223,0.0218,0.0199,0.02,0.0216,0.0211,0.021,0.0214,0.0214,0.024,0.0248,0.0255,0.0272,0.0303,0.0315,0.0185,0.0185,0.0185,0,0,0.0273,0.0273,0.0277,0.027,0.026,0.0255,0.0244,0.0236,0.0241,0.0213,0.0213,0.0218,0.0226,0.0246,0.0252,0.0232,0.0292,0.0261,0.0267,0.028,0.031,0.0322,0.0333,0.0189,0.0188,0.0187,0,0,0.0282,0.0287,0.0291,0.0281,0.0269,0.026,0.026,0.0243,0.0246,0.0241,0.0252,0.0282,0.0262,0.0298,0.0312,0.0368,0.0337,0.0366,0.0416,0.0446,0.0457,0.0466,0.0472,0.0481,0.0367,0.0367,0.0367,0,0.0285,0.0292,0.0287,0.0285,0.0284,0.0266,0.0267,0.0268,0.0251,0.0276,0.0246,0.0307,0.0299,0.038,0.0402,0.0388,0.0384,0.0369,0.0455,0.0465,0.0473,0.0477,0.0487,0.037,0.037,0.037,0.0369,0,0.0292,0.0297,0.0299,0.0296,0.0293,0.0289,0.0291,0.0296,0.0296,0.0309,0.0371,0.0378,0.0424,0.0434,0.0426,0.0508,0.0478,0.0461,0.0423,0.0489,0.0489,0.0498,0.0375,0.0373,0.0373,0.0372,0,0,0.0297,0.0303,0.0303,0.0308,0.03,0.03,0.0324,0.0353,0.0397,0.0396,0.0469,0.0508,0.0529,0.0551,0.0564,0.059,0.0637,0.0547,0.0547,0.0541,0.0682,0.0658,0.0664,0.0622,0.0625,0.0626,0.0652,0,0.0298,0.0306,0.0311,0.032,0.0322,0.0332,0.0361,0.0392,0.0422,0.0484,0.0541,0.0601,0.0571,0.0606,0.0633,0.065,0.0666,0.0631,0.063,0.063,0.0591,0.0677,0.0652,0.0673,0.0661,0.0662,0.0663,0,0.0296,0.0304,0.0315,0.0347,0.0352,0.0361,0.0425,0.0449,0.0542,0.0574,0.0654,0.0692,0.0776,0.0723,0.0779,0.0752,0.0723,0.0715,0.0715,0.0686,0.0625,0.061,0.069,0.0664,0.0677,0.0676,0.0675,0,0.0293,0.031,0.0323,0.0326,0.0356,0.0383,0.0408,0.0482,0.0534,0.0645,0.0704,0.0794,0.085,0.0849,0.0833,0.0807,0.0867,0.0828,0.0779,0.0775,0.0754,0.0746,0.0804,0.0853,0.0853,0.0853,0.0853,0,0.0288,0.0301,0.0325,0.0328,0.0371,0.0391,0.046,0.0505,0.0601,0.0691,0.0755,0.0844,0.088,0.092,0.0878,0.0868,0.0901,0.0814,0.0797,0.077,0.0762,0.0738,0.073,0.0854,0.0854,0.0853,0.0853,0,0.0281,0.0289,0.0308,0.0345,0.0364,0.0394,0.0475,0.0544,0.0616,0.0739,0.0782,0.0899,0.095,0.096,0.0972,0.0931,0.0908,0.0886,0.0841,0.082,0.0753,0.0749,0.0824,0.0833,0.086,0.086,0.0859,0,0.0282,0.0284,0.0317,0.0345,0.0363,0.0416,0.0472,0.0544,0.0622,0.0771,0.0843,0.0937,0.1005,0.1022,0.0978,0.0929,0.0902,0.0863,0.0821,0.0777,0.076,0.0768,0.0772,0.0805,0.0804,0.0804,0.0803,0,0.0288,0.0292,0.0314,0.0363,0.0413,0.0476,0.0556,0.0612,0.0718,0.0808,0.0931,0.0991,0.1026,0.1001,0.0942,0.0899,0.0869,0.0851,0.0832,0.0762,0.0752,0.0741,0.0739,0.0799,0.0799,0.08,0.08,0.08,0.0304,0.0321,0.0351,0.0401,0.0458,0.0539,0.0596,0.0683,0.0782,0.0906,0.0959,0.1016,0.0996,0.0927,0.0886,0.0799,0.083,0.0751,0.076,0.0779,0.0776,0.0757,0.0779,0.0779,0.0779,0.078,0.078,0,0.0332,0.0357,0.0401,0.0461,0.0526,0.0553,0.0666,0.0721,0.0821,0.0893,0.0964,0.0951,0.0902,0.0849,0.0758,0.0711,0.0712,0.069,0.0698,0.0713,0.0713,0.0695,0.0668,0.0668,0.0668,0.0668,0.0668,0.0668,0.0355,0.0395,0.0414,0.0512,0.056,0.065,0.071,0.0776,0.083,0.0871,0.0868,0.0889,0.0884,0.0751,0.0676,0.0659,0.0666,0.0649,0.0677,0.0653,0.0659,0.0664,0.0646,0.0609,0.0609,0.0669,0.067,0.067]}],[{"header":{"parameterUnit":"m.s-1","parameterCategory":2,"la1":30.2991,"la2":30.254,"lo1":-89.0895,"lo2":-89.0444,"dy":0.0017,"dx":0.0017,"nx":28,"ny":28,"refTime":"2024-09-29T21:00:00:Z","depth":"2","parameterNumber":2,"parameterNumberName":"U-component_of_CURRENTS"},"data":[0,0,0,0,0,0,0,0,0,0,0,0,0,0,0,0,0,0,0,0,0,0,0,0,0,0,0,0,0,0,0,0,0,0,0,0,0,0,0,0,0,0,0,0,0,0,0,0,0,0,0,0,0,0,0,0,0,0,0.1136,0.1137,0,0.1227,0.1227,0.1228,0.1158,0.1155,0.1153,0.1151,0.128,0.1286,0.1291,0,0,0,0,0,0,0,0,0,0,0,0,0,0.1158,0.1156,0.1135,0.1137,0.1139,0.1227,0.1227,0.1228,0.1158,0.1155,0.1152,0.115,0.1278,0.1285,0.1292,0,0,0,0,0,0,0,0,0,0,0,0,0,0.118,0.1155,0.1135,0.1121,0.1121,0.1227,0.1227,0.1228,0.1159,0.1155,0.1152,0.1148,0.1276,0.1284,0.1293,0.1413,0,0,0.1318,0.1322,0,0,0,0,0,0,0,0,0.1179,0.1178,0.1121,0.1122,0.1122,0.1184,0.1283,0.1295,0.1159,0.1136,0.1151,0.1147,0.126,0.1269,0.1282,0.1419,0.1425,0.1319,0.1324,0.1328,0.133,0,0,0,0,0,0,0,0.1177,0.1176,0.1163,0.1123,0.1125,0.1199,0.1195,0.1285,0.121,0.1138,0.1135,0.1159,0.1258,0.1274,0.1285,0.1427,0.1319,0.1326,0.1331,0.1335,0.1547,0.1547,0,0,0,0,0,0,0.1172,0.1173,0.1161,0.1167,0.1152,0.1201,0.1196,0.1161,0.1209,0.1214,0.1162,0.1155,0.1261,0.1275,0.1289,0.1389,0.1327,0.1335,0.134,0.1546,0.1547,0.1548,0,0,0,0,0,0,0.1171,0.1167,0.1157,0.1183,0.1187,0.1203,0.1166,0.1165,0.117,0.1228,0.1232,0.1166,0.1259,0.1277,0.1314,0.1395,0.1339,0.1347,0.1546,0.1546,0.1547,0.1619,0,0,0,0,0,0,0.117,0.1165,0.1148,0.118,0.1186,0.1192,0.117,0.117,0.1195,0.1186,0.1235,0.1242,0.1258,0.1301,0.1322,0.1405,0.1353,0.1545,0.1546,0.1547,0.1616,0.1622,0.1628,0,0,0,0,0,0.1169,0.1148,0.1145,0.1146,0.1155,0.1193,0.1201,0.12,0.1198,0.1192,0.1202,0.124,0.1323,0.1307,0.1333,0.1421,0.1544,0.1546,0.1547,0.1613,0.1621,0.1628,0,0,0,0,0,0,0.1129,0.1142,0.1137,0.1113,0.1144,0.1183,0.1196,0.1212,0.1222,0.1223,0.1251,0.126,0.1316,0.135,0.1331,0.1475,0.1443,0.145,0.1485,0.1493,0.1499,0.1488,0.136,0,0,0,0,0,0.1123,0.1114,0.1139,0.1124,0.1137,0.1175,0.1198,0.121,0.1231,0.1231,0.1278,0.1318,0.1352,0.1398,0.1428,0.1536,0.1532,0.1603,0.1609,0.1614,0.1617,0.1655,0.1665,0.1552,0.1552,0.1552,0,0,0.1116,0.1117,0.1116,0.1121,0.1144,0.1179,0.1175,0.1215,0.1249,0.1256,0.1314,0.1339,0.1371,0.1446,0.1483,0.1489,0.1639,0.1616,0.1621,0.162,0.1657,0.1669,0.1679,0.1553,0.1553,0.1553,0,0,0.1117,0.1084,0.1094,0.1107,0.1154,0.1192,0.1205,0.1264,0.1276,0.1346,0.1342,0.139,0.1489,0.1515,0.1541,0.1608,0.1645,0.1648,0.1717,0.1755,0.1765,0.1774,0.1767,0.1775,0.1683,0.1683,0.1683,0,0.1128,0.1094,0.1109,0.1117,0.1142,0.1196,0.1229,0.1265,0.1335,0.1367,0.1361,0.1483,0.1515,0.1597,0.1611,0.1629,0.1641,0.1695,0.1765,0.1774,0.1782,0.1773,0.1781,0.1687,0.1686,0.1686,0.1685,0,0.1122,0.1106,0.1109,0.1137,0.118,0.1203,0.127,0.1324,0.138,0.1431,0.1516,0.1555,0.1629,0.1665,0.1667,0.1765,0.1748,0.1746,0.1753,0.1798,0.1785,0.1792,0.1692,0.169,0.1689,0.1689,0,0,0.1138,0.1115,0.1116,0.1118,0.1182,0.1218,0.1296,0.1378,0.1433,0.152,0.1598,0.1671,0.172,0.1747,0.1787,0.184,0.1901,0.1841,0.1841,0.1842,0.1969,0.1739,0.1724,0.1932,0.1934,0.1936,0.1931,0,0.1138,0.1131,0.1142,0.1176,0.1189,0.1249,0.1314,0.1406,0.1492,0.1584,0.1655,0.1733,0.1746,0.1806,0.1864,0.1896,0.1926,0.1901,0.1916,0.1915,0.1714,0.1726,0.163,0.1599,0.1938,0.1939,0.194,0,0.1154,0.113,0.1149,0.1175,0.1189,0.1242,0.1363,0.1428,0.1562,0.1634,0.1748,0.1797,0.1908,0.1895,0.1987,0.1982,0.1976,0.1984,0.1984,0.1749,0.1698,0.161,0.1598,0.1951,0.195,0.1949,0.1948,0,0.1172,0.1159,0.1168,0.1165,0.121,0.1255,0.1318,0.1455,0.152,0.1683,0.1758,0.188,0.196,0.1997,0.2018,0.2025,0.2079,0.2081,0.1852,0.1835,0.1738,0.1707,0.2101,0.2101,0.2101,0.2101,0.2101,0,0.1173,0.1171,0.1164,0.1153,0.1186,0.1253,0.1353,0.143,0.1568,0.166,0.1788,0.1869,0.1995,0.2038,0.204,0.1955,0.2093,0.1846,0.1819,0.1752,0.1724,0.202,0.2011,0.2101,0.2101,0.2101,0.2101,0,0.12,0.1178,0.1181,0.1191,0.1198,0.1243,0.1345,0.1424,0.1552,0.1684,0.1736,0.1888,0.1894,0.1935,0.1985,0.195,0.1906,0.1827,0.1706,0.166,0.1632,0.1627,0.1579,0.1571,0.1564,0.1558,0.1553,0,0.1199,0.1209,0.1207,0.1209,0.1207,0.1267,0.1325,0.1429,0.1516,0.1672,0.1727,0.1762,0.1773,0.1729,0.1658,0.1563,0.1658,0.1412,0.1366,0.1599,0.158,0.1586,0.1589,0.1288,0.1282,0.1276,0.1272,0,0.1202,0.1227,0.1207,0.1229,0.1259,0.1283,0.1359,0.1392,0.153,0.1582,0.1636,0.1633,0.1573,0.1427,0.1283,0.1221,0.1418,0.1283,0.1624,0.1386,0.1311,0.1296,0.1313,0.1224,0.1229,0.1232,0.1235,0.1237,0.1211,0.1213,0.123,0.1234,0.1264,0.1281,0.1287,0.1338,0.1364,0.1394,0.1464,0.1394,0.1372,0.1031,0.0967,0.0895,0.0953,0.0946,0.0971,0.1001,0.0917,0.0829,0.0636,0.0638,0.0639,0.064,0.0641,0,0.1191,0.1213,0.1238,0.1215,0.1227,0.1274,0.1296,0.1266,0.1216,0.1214,0.1187,0.0999,0.0846,0.0799,0.0624,0.0569,0.0676,0.0526,0.0707,0.075,0.0789,0.0706,0.0364,0.0364,0.0363,0.0363,0,0,0.1171,0.1194,0.1196,0.1172,0.1179,0.1163,0.1154,0.1073,0.1033,0.0895,0.0813,0.0811,0.0788,0.0593,0.0522,0.0438,0.0614,0.0406,0.0619,0.0877,0.0917,0.0997,0.0907,0,0,0,0,0]},{"header":{"parameterUnit":"m.s-1","parameterCategory":2,"la1":30.2991,"la2":30.254,"lo1":-89.0895,"lo2":-89.0444,"dy":0.0017,"dx":0.0017,"nx":28,"ny":28,"refTime":"2024-09-29T21:00:00:Z","depth":"2","parameterNumber":3,"parameterNumberName":"V-component_of_CURRENTS"},"data":[0,0,0,0,0,0,0,0,0,0,0,0,0,0,0,0,0,0,0,0,0,0,0,0,0,0,0,0,0,0,0,0,0,0,0,0,0,0,0,0,0,0,0,0,0,0,0,0,0,0,0,0,0,0,0,0,0,0,0.0058,0.0058,0,0.0013,0.0012,0.0012,-0.0018,-0.0018,-0.0018,-0.0018,-0.007,-0.0072,-0.0073,0,0,0,0,0,0,0,0,0,0,0,0,0,0.0067,0.0067,0.0058,0.0058,0.0058,0.0013,0.0012,0.0011,-0.0018,-0.0018,-0.0018,-0.0018,-0.007,-0.0072,-0.0073,0,0,0,0,0,0,0,0,0,0,0,0,0,0.0044,0.0067,0.0058,0.004,0.0038,0.0013,0.0012,0.0011,-0.0018,-0.0018,-0.0018,-0.0018,-0.0069,-0.0071,-0.0073,-0.0088,0,0,-0.008,-0.0081,0,0,0,0,0,0,0,0,0.0045,0.0043,0.0043,0.0041,0.0039,0.0005,-0.0004,-0.0022,-0.0018,0.0,-0.0018,-0.0018,-0.0044,-0.0048,-0.0061,-0.0091,-0.0093,-0.008,-0.0082,-0.0082,-0.0083,0,0,0,0,0,0,0,0.0047,0.0045,0.0038,0.0042,0.004,0.0015,0.0013,-0.0008,-0.0024,-0.0001,-0.0003,-0.0004,-0.0045,-0.0058,-0.0062,-0.0094,-0.008,-0.0082,-0.0083,-0.0084,-0.0058,-0.0056,0,0,0,0,0,0,0.0061,0.0047,0.0039,0.0037,0.0045,0.0016,0.0012,0.0014,-0.0024,-0.0028,-0.0004,-0.0005,-0.0055,-0.0059,-0.0064,-0.004,-0.0082,-0.0085,-0.0086,-0.006,-0.0057,-0.0055,0,0,0,0,0,0,0.0061,0.0061,0.0041,0.0042,0.0039,0.0016,0.0018,0.0013,0.0002,-0.0025,-0.003,-0.001,-0.0055,-0.0061,-0.0076,-0.0043,-0.0085,-0.0087,-0.0062,-0.0059,-0.0056,-0.0019,0,0,0,0,0,0,0.0061,0.0061,0.0062,0.0044,0.0039,0.0019,0.0018,0.0012,0.0002,0.0,-0.0032,-0.0037,-0.0055,-0.0073,-0.0079,-0.0047,-0.0089,-0.0064,-0.0061,-0.0057,-0.0023,-0.0015,-0.0009,0,0,0,0,0,0.0062,0.0065,0.0063,0.0062,0.0044,0.0018,0.0013,-0.0005,0.0002,-0.0013,-0.0021,-0.0036,-0.0051,-0.0075,-0.0081,-0.0049,-0.0066,-0.0062,-0.0057,-0.0026,-0.0017,-0.0009,0,0,0,0,0,0,0.0062,0.0062,0.0059,0.006,0.0038,0.0014,0.0005,-0.0002,-0.002,-0.0016,-0.0036,-0.0042,-0.0036,-0.0046,-0.007,-0.0024,-0.0051,-0.0047,-0.0024,-0.0016,-0.0009,0.001,-0.0091,0,0,0,0,0,0.0066,0.0073,0.0057,0.0055,0.0048,0.0029,0.0018,0.0006,-0.0009,-0.0017,-0.0037,-0.0035,-0.0022,-0.0024,-0.0031,-0.0024,-0.0028,0.0004,0.0011,0.0017,0.0032,0.0061,0.0072,-0.004,-0.004,-0.004,0,0,0.0065,0.0067,0.0069,0.0056,0.0041,0.0017,0.0021,0.0006,-0.0006,-0.0019,-0.0039,-0.0026,-0.0016,-0.0002,0.0003,-0.0007,0.0043,0.0023,0.0027,0.004,0.0067,0.0078,0.0087,-0.0037,-0.0038,-0.0038,0,0,0.0059,0.0068,0.0065,0.0041,0.0023,0.0014,0.0012,-0.0011,-0.001,-0.0032,-0.0013,0.0023,-0.0005,0.0037,0.0053,0.0098,0.0074,0.0103,0.0154,0.0182,0.0191,0.0199,0.018,0.0186,0.0113,0.0113,0.0113,0,0.0057,0.0049,0.0056,0.003,0.0018,0.0014,-0.0005,-0.0012,-0.0038,-0.0006,-0.0038,0.0026,0.0022,0.0108,0.0128,0.0114,0.0107,0.0113,0.0189,0.0197,0.0205,0.0184,0.019,0.0115,0.0115,0.0115,0.0114,0,0.0034,0.0019,0.0013,-0.001,-0.002,-0.004,-0.0044,-0.0039,-0.0032,-0.0018,0.0049,0.0063,0.0121,0.0134,0.0134,0.0222,0.0189,0.0185,0.0161,0.0218,0.0192,0.0198,0.0118,0.0118,0.0117,0.0116,0,0,0.0043,0.0009,0.0002,-0.0012,-0.0041,-0.0048,-0.0041,-0.0011,0.0035,0.0031,0.0109,0.0152,0.0204,0.0229,0.0266,0.0294,0.0326,0.0266,0.0266,0.0235,0.0353,0.0336,0.034,0.033,0.0332,0.0334,0.0303,0,0.0019,-0.0015,-0.0023,-0.0059,-0.0076,-0.0066,-0.0054,-0.0019,0.0024,0.0091,0.0172,0.0239,0.0229,0.0285,0.0317,0.0343,0.0348,0.0333,0.0314,0.0313,0.0282,0.035,0.0286,0.0256,0.0308,0.0309,0.031,0,-0.0011,-0.0024,-0.0052,-0.0056,-0.0058,-0.0071,0.0,0.0009,0.0117,0.0166,0.0273,0.0327,0.0429,0.0387,0.0444,0.0433,0.0395,0.0383,0.0382,0.0364,0.031,0.0215,0.0264,0.0319,0.0318,0.0317,0.0317,0,-0.0006,-0.0044,-0.0051,-0.0071,-0.0078,-0.0055,-0.0038,0.0046,0.0101,0.0238,0.0314,0.0422,0.0503,0.049,0.0489,0.0464,0.0512,0.0471,0.0408,0.0404,0.0348,0.0337,0.0474,0.0474,0.0474,0.0474,0.0474,0,-0.0034,-0.0049,-0.005,-0.0071,-0.0047,-0.0047,0.0019,0.0065,0.0173,0.0279,0.0367,0.048,0.0533,0.0578,0.0522,0.0505,0.0538,0.0434,0.0415,0.0357,0.0347,0.0406,0.0399,0.0473,0.0473,0.0474,0.0474,0,-0.0048,-0.0058,-0.0073,-0.0068,-0.0056,-0.0039,0.0028,0.0097,0.0188,0.0337,0.039,0.0541,0.0589,0.0597,0.0596,0.0567,0.0528,0.0492,0.0405,0.0378,0.0375,0.037,0.0418,0.0417,0.0417,0.0417,0.0417,0,-0.0057,-0.0068,-0.0067,-0.0046,-0.0046,-0.0008,0.0042,0.0105,0.0194,0.0377,0.0464,0.0564,0.0652,0.065,0.0587,0.0494,0.0492,0.0399,0.0352,0.0403,0.0379,0.0375,0.037,0.0267,0.0265,0.0264,0.0263,0,-0.007,-0.0071,-0.0075,-0.0011,0.0026,0.0064,0.0139,0.0196,0.0313,0.0429,0.0586,0.0656,0.0664,0.0598,0.0504,0.043,0.0417,0.0371,0.0479,0.0303,0.0263,0.0238,0.0239,0.0253,0.0254,0.0255,0.0255,0.0256,-0.0065,-0.0064,-0.0028,0.0038,0.0094,0.0168,0.0216,0.0306,0.0419,0.0579,0.0624,0.0695,0.0636,0.0482,0.0407,0.0322,0.0316,0.0267,0.027,0.0274,0.0275,0.0238,0.022,0.0221,0.0222,0.0222,0.0223,0,-0.0048,-0.0016,0.0043,0.0117,0.0211,0.0224,0.0323,0.0376,0.0508,0.0579,0.0667,0.0582,0.0497,0.0411,0.0258,0.0204,0.0197,0.0182,0.0165,0.0173,0.0181,0.0178,0.0096,0.0097,0.0097,0.0097,0,0,-0.0039,0.0021,0.0064,0.0233,0.0299,0.0396,0.0444,0.0503,0.0553,0.0604,0.0603,0.0593,0.049,0.0362,0.0252,0.0172,0.02,0.0161,0.0253,0.0249,0.0259,0.0204,0.0205,0,0,0,0,0]}],[{"header":{"parameterUnit":"m.s-1","parameterCategory":2,"la1":30.2991,"la2":30.254,"lo1":-89.0895,"lo2":-89.0444,"dy":0.0017,"dx":0.0017,"nx":28,"ny":28,"refTime":"2024-09-29T21:00:00:Z","depth":"4","parameterNumber":2,"parameterNumberName":"U-component_of_CURRENTS"},"data":[0,0,0,0,0,0,0,0,0,0,0,0,0,0,0,0,0,0,0,0,0,0,0,0,0,0,0,0,0,0,0,0,0,0,0,0,0,0,0,0,0,0,0,0,0,0,0,0,0,0,0,0,0,0,0,0,0,0,0.0007,0.0006,0,-0.0211,-0.0214,-0.0217,-0.0341,-0.034,-0.034,-0.0339,-0.0463,-0.0467,-0.0471,0,0,0,0,0,0,0,0,0,0,0,0,0,0.0059,0.006,0.0007,0.0006,0.0004,-0.021,-0.0214,-0.0218,-0.0341,-0.034,-0.034,-0.0339,-0.0462,-0.0467,-0.0471,0,0,0,0,0,0,0,0,0,0,0,0,0,-0.0051,0.006,0.0008,-0.0076,-0.0085,-0.0209,-0.0214,-0.0219,-0.0341,-0.034,-0.034,-0.0339,-0.0461,-0.0466,-0.0472,-0.0523,0,0,-0.0489,-0.0492,0,0,0,0,0,0,0,0,-0.0044,-0.0054,-0.0062,-0.007,-0.008,-0.0239,-0.0241,-0.0313,-0.0341,-0.0255,-0.0339,-0.0338,-0.0373,-0.0386,-0.0445,-0.0529,-0.0534,-0.049,-0.0493,-0.0496,-0.0497,0,0,0,0,0,0,0,-0.0036,-0.0046,-0.009,-0.0063,-0.0075,-0.019,-0.0203,-0.0258,-0.0322,-0.0262,-0.0269,-0.0277,-0.0379,-0.044,-0.0448,-0.0536,-0.049,-0.0495,-0.0498,-0.05,-0.0554,-0.0552,0,0,0,0,0,0,0.0025,-0.0037,-0.0082,-0.0095,-0.0048,-0.019,-0.0206,-0.0197,-0.0324,-0.034,-0.0278,-0.0282,-0.043,-0.0442,-0.0453,-0.0445,-0.0496,-0.0501,-0.0504,-0.0556,-0.0553,-0.0551,0,0,0,0,0,0,0.0027,0.0023,-0.0073,-0.0065,-0.0083,-0.0188,-0.018,-0.0202,-0.0245,-0.0335,-0.0351,-0.0295,-0.043,-0.0445,-0.0507,-0.0453,-0.0504,-0.0509,-0.0558,-0.0555,-0.0552,-0.0476,0,0,0,0,0,0,0.0029,0.0026,0.0054,-0.0059,-0.0081,-0.015,-0.0181,-0.0206,-0.0247,-0.0255,-0.0355,-0.0367,-0.0431,-0.0498,-0.0513,-0.0461,-0.0513,-0.0561,-0.0557,-0.0553,-0.0481,-0.0471,-0.0462,0,0,0,0,0,0.0032,0.0045,0.0057,0.0052,-0.0038,-0.015,-0.0175,-0.0255,-0.0247,-0.0287,-0.0346,-0.0363,-0.0481,-0.0504,-0.0521,-0.0469,-0.0562,-0.0558,-0.0553,-0.0485,-0.0473,-0.0462,0,0,0,0,0,0,0.0066,0.0032,0.0042,0.0045,-0.0033,-0.0167,-0.0205,-0.0237,-0.032,-0.0315,-0.0383,-0.0403,-0.0425,-0.0459,-0.0481,-0.0466,-0.0506,-0.0504,-0.0447,-0.0436,-0.0427,-0.0399,-0.0518,0,0,0,0,0,0.0102,0.0107,0.0043,0.0039,0.0013,-0.008,-0.0126,-0.018,-0.0264,-0.03,-0.0354,-0.0392,-0.0424,-0.0442,-0.0492,-0.0509,-0.0541,-0.0468,-0.0458,-0.045,-0.0435,-0.0306,-0.0282,-0.0536,-0.0536,-0.0536,0,0,0.0104,0.0096,0.0093,0.0049,-0.0017,-0.0091,-0.0111,-0.0187,-0.0232,-0.0296,-0.0359,-0.0377,-0.0424,-0.0447,-0.0452,-0.0467,-0.0443,-0.0444,-0.0438,-0.0426,-0.0299,-0.0274,-0.0251,-0.0533,-0.0534,-0.0534,0,0,0.0069,0.0116,0.0086,0.003,-0.0037,-0.009,-0.0093,-0.0197,-0.0218,-0.0281,-0.0308,-0.0291,-0.0376,-0.0377,-0.0391,-0.035,-0.04,-0.0343,-0.0272,-0.0147,-0.0124,-0.0104,-0.0322,-0.0321,-0.0329,-0.0329,-0.0329,0,0.0078,0.005,0.0049,-0.0011,-0.0045,-0.0077,-0.0143,-0.0186,-0.029,-0.0275,-0.0287,-0.0317,-0.0334,-0.0325,-0.0293,-0.0324,-0.0366,-0.0319,-0.0131,-0.011,-0.0091,-0.0317,-0.0317,-0.0325,-0.0325,-0.0325,-0.0326,0,-0.0001,-0.0025,-0.0056,-0.0111,-0.0148,-0.0214,-0.0247,-0.0256,-0.0244,-0.0267,-0.024,-0.0263,-0.0255,-0.0237,-0.0256,-0.0122,-0.0254,-0.014,-0.0158,-0.006,-0.0309,-0.0311,-0.0318,-0.032,-0.0321,-0.0322,0,0,-0.0003,-0.0088,-0.0102,-0.0129,-0.0195,-0.0237,-0.0255,-0.0271,-0.0242,-0.0266,-0.0231,-0.0209,-0.0157,-0.0162,-0.015,-0.0032,0.0018,-0.0006,-0.0001,-0.023,0.0058,0.0134,0.0135,0.0212,0.0218,0.0222,-0.025,0,-0.0073,-0.0177,-0.0188,-0.0278,-0.0338,-0.0319,-0.0324,-0.0319,-0.0289,-0.026,-0.0202,-0.0171,-0.0151,-0.0102,0.0017,0.0014,0.0056,0.0119,0.0002,-0.0009,0.0056,0.016,0.024,-0.0251,-0.0252,-0.0252,-0.0252,0,-0.0169,-0.0209,-0.0305,-0.0325,-0.0336,-0.0357,-0.0298,-0.0309,-0.025,-0.021,-0.0145,-0.0119,-0.0066,0.004,0.0039,0.0082,0.01,0.0103,0.0089,0.0164,0.0082,-0.0316,-0.0255,-0.0255,-0.0255,-0.0254,-0.0254,0,-0.02,-0.029,-0.034,-0.0369,-0.0399,-0.0362,-0.0331,-0.0275,-0.0237,-0.015,-0.0108,-0.0075,-0.0038,0.0026,-0.0,0.0057,-0.0006,0.0059,0.0072,0.0056,0.0079,0.0066,0.0178,0.0179,0.018,0.0181,0.0183,0,-0.0276,-0.0327,-0.0343,-0.0379,-0.0363,-0.0355,-0.0292,-0.0246,-0.0168,-0.0129,-0.0058,-0.0043,0.0035,-0.0012,-0.0037,-0.0061,-0.0058,0.0076,0.0043,0.0081,0.0076,0.0061,0.0053,0.0163,0.0167,0.0171,0.0174,0,-0.0329,-0.0372,-0.0429,-0.0417,-0.04,-0.037,-0.0271,-0.0219,-0.0139,-0.0088,-0.005,-0.0022,-0.0056,-0.011,-0.0095,-0.0102,-0.0136,-0.0112,-0.0331,-0.0374,-0.0224,-0.0223,-0.0225,-0.0224,-0.0223,-0.0222,-0.0221,0,-0.0369,-0.0413,-0.0434,-0.0436,-0.0419,-0.0359,-0.0309,-0.0212,-0.017,-0.0107,-0.0106,-0.0075,-0.0064,-0.0164,-0.015,-0.0293,-0.0169,-0.0328,0.0005,-0.0182,-0.0219,-0.0219,-0.0218,-0.022,-0.022,-0.0219,-0.0219,0,-0.0407,-0.042,-0.044,-0.0454,-0.0417,-0.0369,-0.0294,-0.0259,-0.0167,-0.0121,-0.0084,-0.0055,-0.0089,-0.0126,-0.0179,-0.0248,-0.0302,-0.0317,-0.0315,-0.0004,-0.0177,-0.0214,-0.0215,-0.0216,-0.0216,-0.0217,-0.0217,0,-0.0407,-0.0419,-0.0448,-0.0438,-0.0415,-0.036,-0.0326,-0.025,-0.0186,-0.01,-0.0132,-0.0107,-0.0103,-0.0112,-0.0219,-0.0219,-0.0152,-0.0142,-0.0148,-0.0153,0.0134,-0.0059,-0.0072,0,0,0,0,0,-0.0389,-0.0394,-0.0414,-0.0406,-0.0383,-0.0346,-0.0309,-0.0277,-0.0219,-0.0164,-0.0109,-0.012,-0.0098,-0.0141,-0.0111,-0.0201,-0.0197,-0.0173,-0.0199,-0.0199,-0.0202,0.0153,0,0,0,0,0,0,-0.0381,-0.0405,-0.0412,-0.0364,-0.033,-0.0285,-0.0246,-0.0223,-0.0189,-0.0141,-0.0139,-0.0091,-0.0104,-0.0076,-0.0093,-0.0101,-0.0113,-0.0166,-0.0165,-0.0197,-0.02,-0.0203,0.0161,0,0,0,0,0]},{"header":{"parameterUnit":"m.s-1","parameterCategory":2,"la1":30.2991,"la2":30.254,"lo1":-89.0895,"lo2":-89.0444,"dy":0.0017,"dx":0.0017,"nx":28,"ny":28,"refTime":"2024-09-29T21:00:00:Z","depth":"4","parameterNumber":3,"parameterNumberName":"V-component_of_CURRENTS"},"data":[0,0,0,0,0,0,0,0,0,0,0,0,0,0,0,0,0,0,0,0,0,0,0,0,0,0,0,0,0,0,0,0,0,0,0,0,0,0,0,0,0,0,0,0,0,0,0,0,0,0,0,0,0,0,0,0,0,0,0.0102,0.0102,0,0.0167,0.0168,0.0169,0.025,0.0251,0.0252,0.0253,0.0401,0.0404,0.0407,0,0,0,0,0,0,0,0,0,0,0,0,0,0.0069,0.0069,0.0101,0.0102,0.0102,0.0167,0.0168,0.017,0.025,0.0251,0.0252,0.0253,0.04,0.0404,0.0408,0,0,0,0,0,0,0,0,0,0,0,0,0,0.0108,0.007,0.0101,0.0147,0.0151,0.0167,0.0168,0.017,0.025,0.0251,0.0252,0.0254,0.0399,0.0404,0.0408,0.0412,0,0,0.0423,0.0425,0,0,0,0,0,0,0,0,0.0106,0.011,0.014,0.0144,0.0148,0.0198,0.0211,0.0254,0.025,0.0217,0.0253,0.0254,0.0337,0.0347,0.0362,0.0419,0.0426,0.0423,0.0426,0.0428,0.043,0,0,0,0,0,0,0,0.0103,0.0108,0.0132,0.014,0.0145,0.0171,0.0179,0.022,0.0274,0.022,0.0225,0.0224,0.0341,0.0357,0.0366,0.0428,0.0423,0.0427,0.043,0.0432,0.0485,0.0483,0,0,0,0,0,0,0.0083,0.0105,0.013,0.0134,0.0124,0.017,0.0179,0.0184,0.0272,0.0285,0.0223,0.0228,0.0348,0.036,0.0372,0.0395,0.0428,0.0433,0.0435,0.0486,0.0484,0.0483,0,0,0,0,0,0,0.0082,0.0085,0.0127,0.0117,0.0123,0.0169,0.0175,0.0185,0.0207,0.0273,0.0288,0.0235,0.035,0.0365,0.0424,0.0401,0.0435,0.0439,0.0488,0.0486,0.0484,0.0434,0,0,0,0,0,0,0.0081,0.0084,0.008,0.0115,0.0123,0.0153,0.0174,0.0185,0.0202,0.0209,0.0287,0.0302,0.0352,0.0417,0.0429,0.0408,0.0443,0.049,0.0487,0.0484,0.0437,0.043,0.0424,0,0,0,0,0,0.0079,0.0081,0.008,0.0083,0.0117,0.0153,0.0161,0.02,0.0201,0.0222,0.0271,0.03,0.0406,0.0421,0.0435,0.0415,0.0491,0.0488,0.0485,0.044,0.0432,0.0424,0,0,0,0,0,0,0.0071,0.009,0.009,0.0097,0.0124,0.0165,0.0178,0.0192,0.0243,0.025,0.0307,0.0326,0.0366,0.0391,0.0405,0.0416,0.0443,0.0442,0.0404,0.0396,0.039,0.04,0.0447,0,0,0,0,0,0.006,0.0065,0.0089,0.0094,0.0103,0.0133,0.0147,0.0174,0.0217,0.024,0.0292,0.033,0.0358,0.0381,0.0425,0.0441,0.0447,0.0426,0.0419,0.0414,0.0428,0.039,0.0382,0.0472,0.0472,0.0472,0,0,0.0055,0.0064,0.0067,0.0091,0.0111,0.014,0.0148,0.0174,0.0205,0.0248,0.0308,0.0325,0.036,0.0387,0.0401,0.0408,0.039,0.0409,0.0405,0.0423,0.0386,0.0377,0.037,0.047,0.047,0.0471,0,0,0.0063,0.0057,0.0072,0.0092,0.0117,0.014,0.0143,0.0186,0.0213,0.0262,0.0282,0.0282,0.0354,0.0356,0.0366,0.0341,0.0364,0.0342,0.0316,0.0278,0.0271,0.0265,0.0262,0.0255,0.0329,0.0329,0.0329,0,0.0057,0.0078,0.0083,0.0107,0.0128,0.0138,0.0173,0.0196,0.0255,0.0269,0.0284,0.0317,0.0335,0.0331,0.0316,0.0327,0.0327,0.0347,0.027,0.0264,0.0259,0.0257,0.0251,0.0326,0.0327,0.0327,0.0327,0,0.0081,0.01,0.011,0.0144,0.017,0.0197,0.0227,0.0251,0.0268,0.0284,0.0297,0.0304,0.0315,0.0295,0.0307,0.0259,0.028,0.0274,0.0294,0.0247,0.0248,0.0242,0.0322,0.0323,0.0324,0.0325,0,0,0.0075,0.012,0.0126,0.0153,0.0192,0.0221,0.0256,0.0292,0.0299,0.032,0.032,0.0317,0.0288,0.0294,0.0272,0.0227,0.0168,0.0231,0.023,0.0235,0.0114,0.0132,0.0128,0.0149,0.0148,0.0147,0.0132,0,0.0098,0.015,0.0172,0.023,0.0262,0.0282,0.0314,0.0339,0.0349,0.0348,0.031,0.031,0.0296,0.0275,0.0225,0.0191,0.0152,0.0176,0.0154,0.0155,0.018,0.0121,0.0142,0.0128,0.0126,0.0125,0.0125,0,0.0129,0.0157,0.0216,0.0275,0.029,0.0328,0.0366,0.0398,0.0384,0.0385,0.0352,0.0322,0.0261,0.0242,0.0169,0.0189,0.0151,0.012,0.0118,0.0154,0.0162,0.0183,0.0115,0.0116,0.0117,0.0117,0.0118,0,0.0132,0.02,0.0248,0.0266,0.0322,0.0357,0.0396,0.041,0.0429,0.0398,0.0378,0.032,0.0271,0.0223,0.0163,0.016,0.0087,0.0071,0.006,0.0062,0.0077,0.0084,0.0012,0.0012,0.0012,0.0012,0.0012,0,0.0151,0.0188,0.0256,0.0273,0.0341,0.0378,0.0427,0.0449,0.0446,0.0427,0.039,0.0322,0.0257,0.0202,0.0164,0.0108,0.009,0.0056,0.0049,0.0056,0.0061,0.0073,0.008,0.0012,0.0012,0.0012,0.0012,0,0.0139,0.018,0.0232,0.0301,0.0346,0.0389,0.0476,0.0485,0.0487,0.0451,0.0435,0.0327,0.0237,0.0209,0.0112,0.0101,0.0056,0.0042,0.0083,0.0079,0.0059,0.0063,0.0017,0.0017,0.0017,0.0017,0.0018,0,0.0138,0.0165,0.0253,0.0309,0.035,0.043,0.0478,0.0513,0.0494,0.0425,0.0372,0.0283,0.0207,0.0114,0.007,0.0052,0.0038,0.0049,0.0021,0.0056,0.0054,0.0058,0.0063,0.0018,0.0018,0.0018,0.0018,0,0.0122,0.0148,0.0176,0.0297,0.0371,0.0437,0.0489,0.0456,0.0436,0.0456,0.031,0.0244,0.0138,0.006,0.0076,0.0042,0.0063,0.0051,0.0049,0.0022,0.0057,0.0056,0.006,0.0019,0.0019,0.0019,0.0019,0,0.0103,0.0115,0.0171,0.0275,0.0377,0.0402,0.0422,0.0391,0.0379,0.0297,0.023,0.0141,0.0097,0.005,0.0038,0.0049,0.0023,0.0034,0.0032,0.0031,0.0043,0.009,0.005,0,0,0,0,0,0.0096,0.0107,0.0177,0.0256,0.0352,0.0417,0.0419,0.04,0.0349,0.0261,0.0258,0.0163,0.0098,0.0032,0.0039,0.0019,0.0022,0.0028,0.0033,0.0024,0.0023,0.0036,0,0,0,0,0,0,0.0089,0.0124,0.0142,0.0232,0.0302,0.0373,0.0361,0.0314,0.0248,0.0212,0.0163,0.0204,0.0126,0.0124,0.0057,0.0054,0.0062,0.0019,0.0019,0.0024,0.0023,0.0023,0.0036,0,0,0,0,0]}]]